sat.trackr.live / text

‹ back to catalog

STARLINK-36973

NORAD 68078 · 2026-042K

PAYLOAD ACTIVE UNKNOWN

§ Identity

Operator
Country
US
Launch date
2026-03-04
Launch site
AFETR
Launch vehicle
Mass (kg)
RCS (m²)

Purposes: comms

External: N2YO · Heavens-Above · Gunter

§ Orbital elements

Epoch: 2026-05-25T02:16:54.545664Z

Period
93.85 min
Inclination
53.1589°
Eccentricity
0.0000822
Mean motion
15.34415647 rev/d
Perigee alt
462.1 km
Apogee alt
463.2 km
Semi-major
6,840.8 km
B*
6.0079e-4
RAAN
183.0810°
Arg perigee
81.2486°
Mean anomaly
278.8609°
Rev number
1,401

§ Raw data

STARLINK-369731 68078U 26042K   26145.09507576  .00019987  00000+0  60079-3 0  99982 68078  53.1589 183.0810 0000822  81.2486 278.8609 15.34415647 14010

JSON: /api/v1/satellites/68078 · /tle

For live sub-satellite position, see the globe view (requires WebGL).

§ Visibility from observer

Set your observer location to see the next 7 days of passes ≥ 10°. The values pass through the URL so the page stays shareable.

No JS? Fill the form by hand. The geolocation button needs JavaScript.